Farmington, MO

12:18 AM CST on February 27, 2017 (GMT -0600)
Farmington Regional

Weather History for KFAM - September, 2013

Change the Weather History Date:

Wednesday, September 25, 2013

  Actual Average Record
Temperature  
Mean Temperature 71 °F -  
Max Temperature 80 °F 73 °F 88 °F (2016)
Min Temperature 62 °F 49 °F 35 °F (2001)
Cooling Degree Days 6    
Growing Degree Days 21 (Base 50)    
Moisture  
Dew Point 63 °F    
Average Humidity 83    
Maximum Humidity 94    
Minimum Humidity 54    
Precipitation  
Precipitation 0.00 in - - ()
Sea Level Pressure  
Sea Level Pressure 29.87 in    
Wind  
Wind Speed 1 mph (East)    
Max Wind Speed 7 mph    
Max Gust Speed -    
Visibility 7 miles    
Events      
Averages and records for this station are not official NWS values.
T = Trace of Precipitation, MM = Missing Value Source: NWS Daily Summary

Daily Weather History Graph

Daily Weather History Graph

Search for Another Location

Airport or City:

Trip Planner

Search our weather history database for the weather conditions in past years. The results will help you decide how hot, cold, wet, or windy it might be!

Date:

Astronomy

Sep. 25, 2013 Rise Set
Actual Time 6:52 AM CDT 6:53 PM CDT
Civil Twilight 6:26 AM CDT 7:19 PM CDT
Nautical Twilight 5:55 AM CDT 7:50 PM CDT
Astronomical Twilight 5:24 AM CDT 8:21 PM CDT
Moon 11:05 PM CDT (9/25) 12:52 PM CDT (9/25)
Length of Visible Light 12h 53m
Length of Day
12h 01m
Waning Gibbous, 64% of the Moon is Illuminated
Sep 25
Waning Gibbous
Sep 26
Last Quarter
Oct 4
New
Oct 11
First Quarter
Oct 18
Full

Hourly Weather History & Observations

Time (CDT) Temp. Heat Index Dew Point Humidity Pressure Visibility Wind Dir Wind Speed Gust Speed Precip Events Conditions
12:15 AM 64.4 °F - 62.6 °F 94% 29.84 in 7.0 mi Calm Calm - N/A   Scattered Clouds
12:35 AM 64.4 °F - 62.6 °F 94% 29.84 in 5.0 mi ESE 3.5 mph - N/A   Mostly Cloudy
12:55 AM 64.4 °F - 62.6 °F 94% 29.85 in 5.0 mi Calm Calm - N/A   Overcast
1:15 AM 64.4 °F - 62.6 °F 94% 29.84 in 5.0 mi Calm Calm - N/A   Overcast
1:35 AM 64.4 °F - 62.6 °F 94% 29.84 in 4.0 mi Calm Calm - N/A   Overcast
1:55 AM 64.4 °F - 62.6 °F 94% 29.84 in 3.0 mi Calm Calm - N/A   Scattered Clouds
2:15 AM 64.4 °F - 62.6 °F 94% 29.84 in 4.0 mi Calm Calm - N/A   Mostly Cloudy
2:35 AM 64.4 °F - 62.6 °F 94% 29.82 in 3.0 mi Calm Calm - N/A   Mostly Cloudy
2:55 AM 64.4 °F - 62.6 °F 94% 29.81 in 1.0 mi Calm Calm - N/A   Overcast
3:15 AM 64.4 °F - 62.6 °F 94% 29.82 in 2.0 mi Calm Calm - N/A   Overcast
3:35 AM 64.4 °F - 62.6 °F 94% 29.82 in 2.0 mi Calm Calm - N/A   Overcast
3:55 AM 64.4 °F - 62.6 °F 94% 29.83 in 4.0 mi Calm Calm - N/A   Overcast
4:15 AM 64.4 °F - 62.6 °F 94% 29.83 in 7.0 mi Calm Calm - N/A   Overcast
4:35 AM 64.4 °F - 62.6 °F 94% 29.83 in 5.0 mi Calm Calm - N/A   Overcast
4:55 AM 64.4 °F - 62.6 °F 94% 29.83 in 5.0 mi Calm Calm - N/A   Overcast
5:15 AM 64.4 °F - 62.6 °F 94% 29.83 in 5.0 mi NNE 3.5 mph - N/A   Overcast
5:35 AM 64.4 °F - 62.6 °F 94% 29.83 in 5.0 mi ENE 4.6 mph - N/A   Overcast
5:55 AM 64.4 °F - 62.6 °F 94% 29.83 in 7.0 mi NE 3.5 mph - N/A   Overcast
6:15 AM 64.4 °F - 62.6 °F 94% 29.84 in 7.0 mi Calm Calm - N/A   Overcast
6:35 AM 64.4 °F - 62.6 °F 94% 29.83 in 5.0 mi East 3.5 mph - N/A   Overcast
6:55 AM 64.4 °F - 62.6 °F 94% 29.84 in 1.8 mi East 3.5 mph - N/A   Overcast
7:15 AM 64.4 °F - 62.6 °F 94% 29.85 in 5.0 mi Calm Calm - N/A   Overcast
7:35 AM 64.4 °F - 62.6 °F 94% 29.86 in 4.0 mi Calm Calm - N/A   Overcast
7:55 AM 64.4 °F - 62.6 °F 94% 29.87 in 5.0 mi Calm Calm - N/A   Mostly Cloudy
8:15 AM 64.4 °F - 62.6 °F 94% 29.87 in 7.0 mi Calm Calm - N/A   Overcast
8:35 AM 64.4 °F - 62.6 °F 94% 29.87 in 1.0 mi East 4.6 mph - N/A   Overcast
8:55 AM 64.4 °F - 62.6 °F 94% 29.87 in 4.0 mi NNE 3.5 mph - N/A   Overcast
9:15 AM 64.4 °F - 62.6 °F 94% 29.88 in 3.0 mi East 3.5 mph - N/A   Overcast
9:35 AM 64.4 °F - 62.6 °F 94% 29.88 in 1.8 mi Calm Calm - N/A   Overcast
9:55 AM 64.4 °F - 62.6 °F 94% 29.88 in 5.0 mi Calm Calm - N/A   Overcast
10:15 AM 64.4 °F - 62.6 °F 94% 29.89 in 7.0 mi Calm Calm - N/A   Overcast
10:35 AM 66.2 °F - 64.4 °F 94% 29.89 in 8.0 mi Calm Calm - N/A   Overcast
10:55 AM 66.2 °F - 64.4 °F 94% 29.90 in 9.0 mi NE 3.5 mph - N/A   Overcast
11:15 AM 69.8 °F - 64.4 °F 83% 29.90 in 10.0 mi East 3.5 mph - N/A   Mostly Cloudy
11:35 AM 71.6 °F - 64.4 °F 78% 29.90 in 10.0 mi East 6.9 mph - N/A   Partly Cloudy
11:55 AM 71.6 °F - 64.4 °F 78% 29.89 in 10.0 mi ESE 3.5 mph - N/A   Scattered Clouds
12:15 PM 73.4 °F - 64.4 °F 73% 29.89 in 10.0 mi East 5.8 mph - N/A   Partly Cloudy
12:35 PM 73.4 °F - 62.6 °F 69% 29.89 in 10.0 mi Calm Calm - N/A   Scattered Clouds
12:55 PM 75.2 °F - 62.6 °F 65% 29.88 in 10.0 mi ESE 5.8 mph - N/A   Mostly Cloudy
1:15 PM 75.2 °F - 62.6 °F 65% 29.88 in 10.0 mi ESE 5.8 mph - N/A   Mostly Cloudy
1:35 PM 75.2 °F - 62.6 °F 65% 29.87 in 10.0 mi Calm Calm - N/A   Mostly Cloudy
1:55 PM 77.0 °F - 60.8 °F 57% 29.87 in 10.0 mi ESE 4.6 mph - N/A   Partly Cloudy
2:15 PM 78.8 °F - 62.6 °F 57% 29.86 in 10.0 mi Calm Calm - N/A   Scattered Clouds
2:35 PM 78.8 °F - 60.8 °F 54% 29.86 in 10.0 mi Calm Calm - N/A   Partly Cloudy
2:55 PM 78.8 °F - 62.6 °F 57% 29.86 in 10.0 mi SSW 5.8 mph - N/A   Partly Cloudy
3:15 PM 80.6 °F 81.8 °F 62.6 °F 54% 29.85 in 10.0 mi SE 4.6 mph - N/A   Mostly Cloudy
3:35 PM 80.6 °F 81.8 °F 62.6 °F 54% 29.86 in 10.0 mi Calm Calm - N/A   Overcast
3:55 PM 78.8 °F - 62.6 °F 57% 29.86 in 10.0 mi ENE 5.8 mph - N/A   Overcast
4:15 PM 77.0 °F - 62.6 °F 61% 29.86 in 10.0 mi ENE 5.8 mph - N/A   Mostly Cloudy
4:35 PM 77.0 °F - 62.6 °F 61% 29.86 in 10.0 mi ENE 5.8 mph - N/A   Mostly Cloudy
4:55 PM 77.0 °F - 62.6 °F 61% 29.87 in 10.0 mi NE 4.6 mph - N/A   Scattered Clouds
5:15 PM 77.0 °F - 62.6 °F 61% 29.87 in 10.0 mi Calm Calm - N/A   Partly Cloudy
5:35 PM 78.8 °F - 62.6 °F 57% 29.87 in 10.0 mi East 4.6 mph - N/A   Partly Cloudy
5:55 PM 77.0 °F - 64.4 °F 65% 29.87 in 10.0 mi ESE 3.5 mph - N/A   Clear
6:15 PM 77.0 °F - 62.6 °F 61% 29.87 in 10.0 mi Calm Calm - N/A   Mostly Cloudy
6:35 PM 75.2 °F - 64.4 °F 69% 29.87 in 10.0 mi Calm Calm - N/A   Mostly Cloudy
6:55 PM 73.4 °F - 64.4 °F 73% 29.88 in 10.0 mi Calm Calm - N/A   Scattered Clouds
7:15 PM 71.6 °F - 64.4 °F 78% 29.88 in 10.0 mi Calm Calm - N/A   Partly Cloudy
7:35 PM 71.6 °F - 64.4 °F 78% 29.88 in 10.0 mi Calm Calm - N/A   Clear
7:55 PM 69.8 °F - 62.6 °F 78% 29.89 in 10.0 mi Calm Calm - N/A   Clear
8:15 PM 69.8 °F - 64.4 °F 83% 29.89 in 10.0 mi Calm Calm - N/A   Clear
8:35 PM 66.2 °F - 64.4 °F 94% 29.89 in 10.0 mi Calm Calm - N/A   Clear
8:55 PM 66.2 °F - 64.4 °F 94% 29.90 in 10.0 mi Calm Calm - N/A   Clear
9:15 PM 66.2 °F - 62.6 °F 88% 29.90 in 10.0 mi Calm Calm - N/A   Partly Cloudy
9:35 PM 66.2 °F - 62.6 °F 88% 29.90 in 10.0 mi Calm Calm - N/A   Partly Cloudy
9:55 PM 64.4 °F - 62.6 °F 94% 29.90 in 1.5 mi Calm Calm - N/A   Clear
10:15 PM 64.4 °F - 62.6 °F 94% 29.91 in 8.0 mi Calm Calm - N/A   Clear
10:35 PM 64.4 °F - 62.6 °F 94% 29.91 in 7.0 mi Calm Calm - N/A   Clear
10:55 PM 64.4 °F - 62.6 °F 94% 29.91 in 2.0 mi Calm Calm - N/A   Clear
11:15 PM 62.6 °F - 60.8 °F 94% 29.91 in 3.0 mi Calm Calm - N/A   Clear
11:35 PM 62.6 °F - 60.8 °F 94% 29.91 in 0.5 mi Calm Calm - N/A   Unknown
11:55 PM 62.6 °F - 60.8 °F 94% 29.91 in 0.5 mi Calm Calm - N/A   Unknown